Regional Weather Roundup
Issued by NWS

Home | Current Version | Previous Version | Graphics & Text | Print | Product List | Glossary On
Versions: 1 2 3 4 5 6 7 8 9 10 11 12 13 14 15 16 17 18 19 20 21 22 23 24 25 26 27 28 29 30 31 32 33 34 35 36 37 38 39 40 41 42 43 44 45 46 47 48 49 50
000
ASUS45 KSLC 021710
RWRUT

UTAH REGIONAL WEATHER ROUNDUP
NATIONAL WEATHER SERVICE SALT LAKE CITY UT
1100 AM MDT MON MAY 02 2016

UTZ001>011-023>025-021800-

NORTHERN UTAH

CITY           SKY/WX    TMP DP  RH WIND       PRES   REMARKS
BRIGHAM CITY   SUNNY     57  24  28 CALM      30.23S
HILL AFB       SUNNY     56  30  36 E15       30.23R
LOGAN          SUNNY     55  31  39 N8        30.24F
OGDEN          SUNNY     59  27  29 NE6       30.22S
PROVO AIRPORT  MOSUNNY   57  28  33 VRB5      30.23R
SALT LAKE CITY MOSUNNY   60  28  29 CALM      30.19F
VERNAL         SUNNY     51  24  34 CALM      30.26F
WENDOVER       SUNNY     55  32  41 SE3       30.23S
HEBER CITY     MOSUNNY   48  28  46 CALM      30.25F

$$

UTZ012>022-026-027-021800-

SOUTHERN/CENTRAL UTAH

CITY           SKY/WX    TMP DP  RH WIND       PRES   REMARKS
BLANDING       CLOUDY    46  37  71 S3        30.35F
BRYCE CANYON   PTSUNNY   44  31  60 SE10      30.28R
CEDAR CITY     MOSUNNY   56  35  45 MISG      30.20F
DELTA          CLOUDY    55  36  47 S6        30.22S
HANKSVILLE     MOSUNNY   59  37  44 CALM      30.25S
MILFORD        MOSUNNY   58  35  42 CALM      30.21S
MOAB/CYNLANDS  CLOUDY    59  38  45 SE8       30.22S
PRICE          PTSUNNY   53  35  50 S6        30.26S
ST GEORGE      SUNNY     63  41  45 CALM      30.18F
KANAB          SUNNY     57  39  51 E9G16     30.25F

$$

REGIONAL REPORTS     COLORADO/ARIZONA

CITY           SKY/WX    TMP DP  RH WIND       PRES   REMARKS
CRAIG, CO      SUNNY     48  26  42 W8        30.28S
GRAND JUNCTION MOSUNNY   57  38  48 E5        30.23F
RIFLE          SUNNY     53  37  54 VRB3      30.25F
MONTROSE       MOSUNNY   51  36  56 E5        30.28F
CORTEZ         PTSUNNY   49  34  56 S8        30.27S
PAGE, AZ       CLOUDY    56  42  59 CALM      30.22F
GRAND CANYON   MOSUNNY   50  36  58 NE15      30.25S
KINGMAN        SUNNY     66  39  37 VRB6      30.13S
FLAGSTAFF      CLOUDY    42  37  82 E9        30.25S

$$

REGIONAL REPORTS    NEVADA/IDAHO/WYOMING

CITY           SKY/WX    TMP DP  RH WIND       PRES   REMARKS
LAS VEGAS, NV  MOSUNNY   71  38  29 NE16      30.08S
ELY            SUNNY     50  34  54 NE3       30.24S
ELKO           SUNNY     54  31  41 CALM      30.21S
POCATELLO, ID  SUNNY     56  21  25 CALM      30.25S
BURLEY         SUNNY     58  35  42 NE6       30.21S
EVANSTON, WY   SUNNY     45  18  34 NE7       30.29F
ROCK SPRINGS   SUNNY    N/A N/A N/A MISG      30.30F
KEMMERER       SUNNY     43  21  42 SE7       30.31S

$$



USA.gov is the U.S. government's official web portal to all federal, state and local government web resources and services.